Showing default

CARTOSAT 2D, 41948

Orbit data source: Space-Track

CARTOSAT 2D, 41948 is a payload satellite owned by ISRO (IN) in SSO that was launched on Wed, 15 Feb 2017 UTC via a PSLV-XL launch vehicle from the Sirharikota (SRI). Payloads include a variety of satellites, spacecraft, and rockets equipped with specific instruments for various scientific and technological missions. These include communications satellites like Starlink; space stations such as the ISS; scientific satellites like the Hubble; Earth observation satellites from companies like Planet Labs, Umbra, and HawkEye 360; GPS; miniature CubeSats for education and research; and military/defense satellites.

Loading next visibility...
CARTOSAT 2D details
Identifier
41948, 2017-008A
Orbit
SSO
Last TLE update6 hours ago
Origin
Flag of INISRO (IN / IND)
ManufacturerISRO
MissionOperational Civil Imaging
Bus & MotorIRS-2, AOCS
Mass714 kg wet, 639 kg dry
Launch date (UTC)
2017-02-15 (8 years ago)
Launch vehicle
PSLV-XL
Launch site
Sirharikota (SRI)
Object type
Payload
Rocket body
Debris
Shape & HBRHex Cyl + 2 Pan, 8 m
Radar Cross Section9.780 m², Large (>1 m²)

Expand to show TLE details & history

TLE from 6 hours ago
0 CARTOSAT 2D
1 41948U 17008A   25044.44731198  .00007778  00000-0  37148-3 0  9999
2 41948  97.4794 105.7367 0004441 149.2784 210.8711 15.19307062443370
Epoch: 2025-02-13T10:44Z
Definitive object data (Epoch: 2025-02-13T10:44:07.755Z)
Latitude-0.00002°
Longitude160.98109°
Altitude513.647 km
Speed7.605 km/s
True Right ascension07h 02m 56s
True Declination0° 00' 00"
Sunlit
Object was in full shadow at TLE epoch
Visualization TLE readout
Latitude-10.46177°
Longitude-20.17025°
Altitude510.678 km
Speed7.609 km/s
Apparent Right ascension19h 09m 25s
Apparent Declination-70° 31' 25"
Sunlit
Object is in daylight
Visualization observer readout
Local Sidereal Time18:54:05
Azimuth178.636° S
Elevation-20.475°
Doppler factor1
Orbital elements
Apogee altitude507.96 km
Perigee altitude501.847 km
Semi-major axis6,883.04 km
Eccentricity0.0004441
Inclination97.4794°
RAAN105.7367°
Arg. of periapsis149.2784°
True anomaly210.845°
Mean anomaly210.8711°
Eccentric anomaly210.85805°
Mean motion3.80078 °/min
BSTAR0.00037148
Orbital period94.72 mins
Loading maneuver chart data...

CARTOSAT 2D Visibility forecast

Observer location: undefined°, undefined

Span
Click to sort rows by Start time (UTC) header in descending order
Start Az.
Max El. time (UTC)
Max El. Az.
Max El.
End time (UTC)
End Az.
5 mins2025-02-13 17:36:45.172Z342.062° N2025-02-13 17:39:45.172Z286.086° WNW21.069°2025-02-13 17:41:45.172Z245.918° WSW
5 mins2025-02-14 04:15:45.172Z188.353° SSW2025-02-14 04:17:45.172Z254.067° W39.852°2025-02-14 04:20:45.172Z336.612° NNW
|